Preview of NWS' New Version of Forecast
This preview is not operational and should not be used for support decisions.

Regional Weather Roundup (RWR)

Issued by National Weather Service (NWS)

                            
000
ASUS44 KMEG 200910
RWRTN 
TENNESSEE HOURLY STATE WEATHER ROUNDUP
NATIONAL WEATHER SERVICE MEMPHIS TN
400 AM CDT WED MAR 20 2019

TNZ002-004-019-021-049-052-054-088>092-201000-
WEST TENNESSEE
  
CITY           SKY/WX    TMP DP  RH WIND       PRES   REMARKS
MEMPHIS INTL   FAIR      46  24  42 S8        30.24F                  
NWS MEMPHIS      N/A     38 N/A N/A MISG        N/A                   
JACKSON        FAIR      32  29  88 CALM      30.25F                  
DYERSBURG      FAIR      42  31  64 SE3         N/A                   
SOMERVILLE     PTCLDY    34  30  86 SE5       30.23F WCI  30          
COVINGTON      MOCLDY    36  34  93 CALM      30.24F                  
UNION CITY     PTCLDY    37  34  87 CALM      30.23F                  
BOLIVAR        PTCLDY    32  30  93 CALM      30.24F                  
PARIS          CLEAR     41  23  48 SE7       30.24F                  
HUNTINGDON     CLEAR     36  28  75 CALM      30.24F                  
LEXINGTON      CLEAR     30  27  86 CALM      30.25S                  
SAVANNAH       CLEAR     30  28  93 CALM      30.25S                  
$$

TNZ008-025-027-028-033-062-065-066-201000-
NORTH MIDDLE TENNESSEE
  
CITY           SKY/WX    TMP DP  RH WIND       PRES   REMARKS
NASHVILLE      FAIR      36  27  69 S3        30.26F                  
DICKSON        SUNNY     41  18  38 CALM      30.23F                  
CLARKSVILLE    FAIR      34  26  72 S3        30.25F                  
LEBANON        SUNNY     32  27  80 CALM      30.24F                  
SMYRNA         FAIR      30  27  88 CALM      30.27F                  
MURFREESBORO   PTSUNNY   32  27  80 CALM      30.24F                  
COOKEVILLE     PTCLDY    27  25  93 CALM      30.24S                  
LIVINGSTON     SUNNY     41  16  36 CALM      30.23S                  
GALLATIN       SUNNY     32  28  86 CALM      30.28F                  
CROSSVILLE     FAIR      30  20  66 CALM      30.23F                  
ROCKWOOD       MOSUNNY   37  16  41 CALM      30.22F                  
$$

TNZ061-075-076-078-094-096-097-201000-
SOUTH MIDDLE TENNESSEE
  
CITY           SKY/WX    TMP DP  RH WIND       PRES   REMARKS
LAWRENCEBURG   MOSUNNY   30  28  93 CALM      30.23F                  
LEWISBURG      SUNNY     27  25  93 CALM      30.24F                  
FAYETTEVILLE   CLEAR     36  25  64 NE3       30.23F                  
TULLAHOMA      CLEAR     30  23  74 CALM      30.23F                  
WINCHESTER     CLEAR     30  28  93 CALM      30.24F                  
MCMINNVILLE    CLEAR     28  27  93 CALM      30.24F                  
COLUMBIA       CLEAR     32  32 100 CALM      30.24F                  
SHELBYVILLE    CLEAR     30  27  86 CALM      30.24F                  
$$

TNZ017-018-042-046-047-201000-
NORTHEAST TENNESSEE
  
CITY           SKY/WX    TMP DP  RH WIND       PRES   REMARKS
TRI CITIES     FAIR      28  22  78 CALM      30.25F                  
ELIZABETHTON     N/A     32  23  69 E6        30.25F WCI  26          
GREENEVILLE    SUNNY     36  21  55 CALM      30.22F                  
$$

TNZ012-013-036-069-073-074-201000-
CENTRAL EAST TENNESSEE
  
CITY           SKY/WX    TMP DP  RH WIND       PRES   REMARKS
KNOXVILLE      FAIR      33  24  69 CALM      30.24F                  
OAK RIDGE      FAIR      31  24  75 CALM      30.26F                  
DOWNTOWN KNOXV PTCLDY    30  30 100 CALM      30.26S                  
GATLINBURG     CLOUDY    30  25  80 CALM      30.24F                  
MORRISTOWN     CLOUDY    34  23  64 CALM      30.22F                  
JACKSBORO      CLOUDY    28  27  93 CALM      30.28S                  
$$

TNZ083-085-099-201000-
SOUTHEAST TENNESSEE
  
CITY           SKY/WX    TMP DP  RH WIND       PRES   REMARKS
CHATTANOOGA    FAIR      35  29  78 MISG      30.26F                  
DAYTON         SUNNY     30  28  93 CALM      30.26S FOG              
$$

SKY/WX REPORTED AS FAIR MEANS FEW OR NO CLOUDS BELOW
12 THOUSAND FEET.